[[{"header":{"parameterUnit":"m.s-1","parameterCategory":1,"la1":30.2991,"la2":30.254,"lo1":-89.0895,"lo2":-89.0444,"dy":0.0017,"dx":0.0017,"nx":28,"ny":28,"refTime":"2023-09-16T03:00:00:Z","depth":0,"parameterNumber":2,"parameterNumberName":"U-component_of_WINDS"},"data":[0,0,0,0,0,0,0,0,0,0,0,0,0,0,0,0,0,0,0,0,0,0,0,0,0,0,0,0,0,0,0,0,0,0,0,0,0,0,0,0,0,0,0,0,0,0,0,0,0,0,0,0,0,0,0,0,0,0,1.5367,1.5365,0,1.519,1.5188,1.5186,1.505,1.5049,1.5047,1.5046,1.4866,1.4862,1.4859,0,0,0,0,0,0,0,0,0,0,0,0,0,1.5586,1.5583,1.5367,1.5365,1.5362,1.519,1.5188,1.5185,1.505,1.5049,1.5047,1.5046,1.4867,1.4863,1.4858,0,0,0,0,0,0,0,0,0,0,0,0,0,1.5458,1.5582,1.5367,1.5274,1.5264,1.5191,1.5188,1.5185,1.5051,1.5049,1.5047,1.5045,1.4868,1.4863,1.4858,1.4862,0,0,1.4841,1.4839,0,0,0,0,0,0,0,0,1.5466,1.545,1.529,1.5281,1.5269,1.514,1.5198,1.5077,1.5051,1.5132,1.5046,1.5044,1.4959,1.4946,1.4917,1.4854,1.4846,1.4841,1.4837,1.4835,1.4833,0,0,0,0,0,0,0,1.5475,1.5457,1.5297,1.5288,1.5275,1.5241,1.5221,1.5175,1.5058,1.5125,1.5114,1.5095,1.4952,1.4922,1.4911,1.4843,1.4841,1.4836,1.4832,1.483,1.4771,1.4773,0,0,0,0,0,0,1.5498,1.5466,1.5302,1.5291,1.5365,1.5238,1.5216,1.5183,1.5058,1.5037,1.5097,1.5089,1.4932,1.4918,1.4904,1.4898,1.4835,1.483,1.4827,1.477,1.4772,1.4774,0,0,0,0,0,0,1.5504,1.5485,1.5309,1.5376,1.5351,1.5237,1.5201,1.5181,1.515,1.5037,1.5016,1.5088,1.493,1.4912,1.4873,1.489,1.4827,1.4822,1.4768,1.477,1.4773,1.4888,0,0,0,0,0,0,1.551,1.5488,1.5489,1.5377,1.5348,1.5282,1.5203,1.5179,1.5141,1.513,1.5023,1.5003,1.4927,1.4882,1.4867,1.4882,1.4818,1.4766,1.4769,1.4772,1.4882,1.4895,1.4905,0,0,0,0,0,1.5519,1.5529,1.549,1.5471,1.5347,1.5283,1.5266,1.5179,1.5143,1.5143,1.507,1.5006,1.4891,1.4879,1.4862,1.4874,1.4764,1.4768,1.4772,1.4877,1.4892,1.4905,0,0,0,0,0,0,1.5647,1.5513,1.5467,1.5442,1.5375,1.526,1.5257,1.5198,1.5139,1.5131,1.5025,1.5002,1.4973,1.492,1.4909,1.487,1.4819,1.482,1.4906,1.4919,1.493,1.4942,1.4814,0,0,0,0,0,1.5673,1.5632,1.5517,1.5506,1.5475,1.5372,1.5341,1.5279,1.5205,1.5176,1.51,1.5031,1.4978,1.4946,1.4892,1.4875,1.4848,1.4875,1.4886,1.4896,1.4897,1.4881,1.489,1.4786,1.4786,1.4786,0,0,1.5725,1.5646,1.5628,1.553,1.547,1.543,1.5349,1.531,1.5278,1.517,1.5127,1.5069,1.4985,1.4956,1.4939,1.4911,1.492,1.4901,1.491,1.4905,1.4886,1.4896,1.4905,1.4789,1.4788,1.4788,0,0,1.5798,1.5736,1.5718,1.566,1.557,1.5501,1.5498,1.5391,1.5348,1.5303,1.522,1.5181,1.5094,1.5036,1.4995,1.5045,1.4983,1.5031,1.5088,1.5074,1.5082,1.5088,1.5103,1.511,1.5032,1.5033,1.5033,0,1.5874,1.5809,1.5717,1.5681,1.564,1.5539,1.5519,1.5467,1.5366,1.5339,1.5308,1.5194,1.5131,1.5085,1.5097,1.5068,1.5059,1.5041,1.5088,1.5094,1.5099,1.5111,1.5117,1.5039,1.5038,1.5037,1.5037,0,1.5905,1.5862,1.5858,1.5761,1.5719,1.5692,1.5594,1.5563,1.5505,1.5439,1.5393,1.5313,1.5239,1.5225,1.5168,1.517,1.5155,1.5108,1.5054,1.5116,1.5126,1.513,1.5047,1.5045,1.5043,1.5042,0,0,1.6054,1.5904,1.5904,1.5857,1.575,1.5715,1.5683,1.561,1.5584,1.5517,1.5485,1.5413,1.5368,1.5322,1.5258,1.5246,1.5286,1.5199,1.5196,1.5216,1.5279,1.5313,1.532,1.5246,1.5246,1.5247,1.5285,0,1.6108,1.6044,1.5958,1.5923,1.588,1.5783,1.5755,1.5686,1.5624,1.5578,1.5509,1.5458,1.5404,1.5375,1.5359,1.5285,1.5297,1.5281,1.5213,1.5212,1.5235,1.5326,1.5362,1.5402,1.5289,1.5289,1.529,0,1.6162,1.6099,1.6059,1.5953,1.5932,1.5908,1.5832,1.579,1.5709,1.5665,1.5613,1.5543,1.5502,1.5456,1.5397,1.5389,1.5356,1.5316,1.5315,1.5303,1.5253,1.5314,1.5413,1.5419,1.5296,1.5295,1.5295,0,1.6271,1.6176,1.6138,1.6102,1.5978,1.5963,1.5911,1.5828,1.5789,1.5723,1.5696,1.5628,1.559,1.5538,1.5451,1.5426,1.5401,1.5348,1.5361,1.5363,1.5358,1.5359,1.5451,1.5342,1.5342,1.5342,1.5342,0,1.6338,1.6317,1.6185,1.6162,1.6134,1.6036,1.6011,1.595,1.5877,1.5839,1.5752,1.5719,1.5608,1.5561,1.5493,1.5453,1.5437,1.5399,1.538,1.5405,1.5409,1.538,1.5374,1.5344,1.5343,1.5343,1.5343,0,1.6454,1.6365,1.6317,1.6204,1.6175,1.6159,1.6061,1.6034,1.5967,1.592,1.5903,1.5797,1.5737,1.5646,1.5559,1.5513,1.5484,1.5456,1.5511,1.5499,1.5516,1.5514,1.559,1.5593,1.5487,1.5488,1.5489,0,1.6502,1.6482,1.6366,1.6334,1.6285,1.6236,1.6194,1.6097,1.6057,1.5963,1.5947,1.588,1.5821,1.5729,1.5644,1.5577,1.5544,1.5575,1.5533,1.5558,1.5541,1.5542,1.5538,1.5585,1.5586,1.5588,1.5589,0,1.6595,1.6551,1.6495,1.6423,1.6376,1.6315,1.625,1.6229,1.6117,1.6077,1.6014,1.5968,1.5879,1.5812,1.5733,1.5678,1.5614,1.5603,1.5601,1.5625,1.5656,1.5636,1.5534,1.5601,1.56,1.5599,1.5598,1.5598,1.6675,1.6652,1.6566,1.6506,1.6446,1.6387,1.6355,1.6283,1.6228,1.6147,1.6093,1.6033,1.595,1.5836,1.5784,1.5735,1.5708,1.5707,1.5706,1.5707,1.5714,1.5667,1.5721,1.572,1.572,1.5719,1.5719,0,1.676,1.67,1.6646,1.6556,1.6509,1.6453,1.6377,1.6341,1.6288,1.6216,1.6159,1.6086,1.6021,1.593,1.5858,1.5836,1.5804,1.582,1.5819,1.5807,1.5744,1.5751,1.5846,1.5846,1.5846,1.5846,1.5846,1.5846,1.6799,1.6756,1.6703,1.6629,1.6568,1.6507,1.6468,1.6412,1.6354,1.6275,1.622,1.6162,1.6081,1.6002,1.594,1.5914,1.5891,1.5915,1.5881,1.5823,1.5812,1.58,1.5806,1.5911,1.5911,1.5946,1.5947,1.5947]},{"header":{"parameterUnit":"m.s-1","parameterCategory":1,"la1":30.2991,"la2":30.254,"lo1":-89.0895,"lo2":-89.0444,"dy":0.0017,"dx":0.0017,"nx":28,"ny":28,"refTime":"2023-09-16T03:00:00:Z","depth":0,"parameterNumber":3,"parameterNumberName":"V-component_of_WINDS"},"data":[0,0,0,0,0,0,0,0,0,0,0,0,0,0,0,0,0,0,0,0,0,0,0,0,0,0,0,0,0,0,0,0,0,0,0,0,0,0,0,0,0,0,0,0,0,0,0,0,0,0,0,0,0,0,0,0,0,0,1.693,1.6932,0,1.7051,1.7052,1.7053,1.7097,1.7097,1.7097,1.7096,1.7211,1.7214,1.7218,0,0,0,0,0,0,0,0,0,0,0,0,0,1.673,1.6733,1.693,1.6932,1.6933,1.705,1.7052,1.7054,1.7097,1.7097,1.7096,1.7096,1.721,1.7214,1.7218,0,0,0,0,0,0,0,0,0,0,0,0,0,1.683,1.6734,1.693,1.6969,1.6974,1.705,1.7052,1.7054,1.7097,1.7097,1.7096,1.7096,1.7209,1.7213,1.7219,1.7261,0,0,1.7234,1.7236,0,0,0,0,0,0,0,0,1.6824,1.6837,1.6962,1.6967,1.6972,1.7059,1.7023,1.7123,1.7098,1.705,1.7096,1.7096,1.716,1.7169,1.7193,1.7267,1.7272,1.7235,1.7238,1.724,1.7241,0,0,0,0,0,0,0,1.6817,1.6832,1.6978,1.6964,1.697,1.6978,1.6992,1.7042,1.7107,1.7054,1.7058,1.7072,1.7163,1.7188,1.7196,1.7273,1.7234,1.7239,1.7242,1.7244,1.7387,1.7387,0,0,0,0,0,0,1.6805,1.6826,1.6974,1.6981,1.6896,1.6982,1.6997,1.7031,1.7106,1.7117,1.7072,1.7074,1.7179,1.719,1.72,1.7255,1.724,1.7245,1.7248,1.7386,1.7387,1.7388,0,0,0,0,0,0,1.68,1.6817,1.6969,1.6905,1.6925,1.6986,1.7024,1.7034,1.7059,1.712,1.7131,1.7087,1.7179,1.7193,1.7246,1.7259,1.7247,1.7252,1.7385,1.7386,1.7387,1.7364,0,0,0,0,0,0,1.6794,1.6816,1.6835,1.6905,1.6928,1.7016,1.7025,1.7037,1.7069,1.7072,1.7136,1.7146,1.718,1.7238,1.7251,1.7266,1.7256,1.7384,1.7386,1.7387,1.7364,1.7364,1.7364,0,0,0,0,0,1.6787,1.6822,1.6836,1.6853,1.6954,1.7016,1.7029,1.707,1.707,1.7088,1.7127,1.7144,1.7255,1.7243,1.7258,1.7275,1.7383,1.7385,1.7387,1.7364,1.7364,1.7364,0,0,0,0,0,0,1.6749,1.6832,1.6848,1.6907,1.6955,1.7024,1.7048,1.7069,1.7115,1.7115,1.716,1.7175,1.7224,1.7254,1.7239,1.7319,1.732,1.7325,1.7298,1.7299,1.7299,1.729,1.726,0,0,0,0,0,1.6748,1.6795,1.6864,1.6909,1.6932,1.6986,1.7015,1.7042,1.7092,1.7111,1.7154,1.7199,1.7244,1.7273,1.7318,1.7368,1.7382,1.7387,1.7387,1.7387,1.739,1.7417,1.742,1.7393,1.7393,1.7393,0,0,1.6745,1.6796,1.6823,1.6903,1.6943,1.6988,1.7003,1.705,1.7082,1.7117,1.7171,1.7204,1.7257,1.7309,1.7334,1.7336,1.7401,1.7389,1.7388,1.7392,1.7419,1.7422,1.7424,1.7394,1.7394,1.7394,0,0,1.6764,1.6808,1.6851,1.6891,1.6952,1.6987,1.6997,1.7064,1.7087,1.7143,1.717,1.7207,1.7285,1.7321,1.735,1.7381,1.7398,1.7394,1.7395,1.7421,1.7423,1.7426,1.7436,1.7439,1.7397,1.7397,1.7397,0,1.6752,1.6824,1.6869,1.6915,1.6948,1.6985,1.7026,1.7062,1.7133,1.7154,1.7156,1.7253,1.7292,1.7352,1.7359,1.7382,1.7393,1.7387,1.742,1.7423,1.7425,1.7435,1.7439,1.7396,1.7396,1.7396,1.7396,0,1.6806,1.6855,1.6881,1.6953,1.6989,1.7032,1.7081,1.7111,1.7134,1.7168,1.7223,1.727,1.7325,1.7341,1.7363,1.7404,1.7403,1.7412,1.7414,1.7426,1.7436,1.7441,1.7395,1.7395,1.7395,1.7396,0,0,1.6804,1.69,1.6909,1.6941,1.7011,1.7048,1.7092,1.7148,1.7173,1.722,1.7256,1.732,1.7329,1.7361,1.7388,1.7411,1.7431,1.7417,1.7418,1.7417,1.7477,1.747,1.7474,1.7443,1.7444,1.7444,1.7472,0,1.6831,1.6915,1.6956,1.702,1.7065,1.71,1.7137,1.7182,1.7215,1.7255,1.7289,1.7334,1.7343,1.7362,1.7387,1.7423,1.7443,1.7422,1.7474,1.7476,1.746,1.7479,1.7472,1.7496,1.7476,1.7477,1.7478,0,1.6875,1.6925,1.6995,1.7059,1.7079,1.7113,1.7167,1.7206,1.7256,1.7278,1.7314,1.734,1.7384,1.7383,1.7443,1.7427,1.7451,1.7472,1.7473,1.748,1.7477,1.7485,1.7505,1.7508,1.7485,1.7484,1.7483,0,1.6866,1.695,1.7003,1.7029,1.7106,1.7128,1.716,1.7211,1.7242,1.7288,1.7308,1.7357,1.7384,1.742,1.7457,1.7453,1.7513,1.7515,1.753,1.7529,1.7541,1.754,1.7565,1.7557,1.7557,1.7556,1.7556,0,1.6892,1.6933,1.7,1.7032,1.7078,1.7123,1.7166,1.7201,1.7245,1.7282,1.7314,1.7347,1.7394,1.7433,1.7461,1.7506,1.7518,1.7535,1.7542,1.7532,1.753,1.7548,1.7547,1.7558,1.7557,1.7557,1.7557,0,1.689,1.6937,1.6996,1.7064,1.7082,1.7113,1.7169,1.72,1.7234,1.728,1.7293,1.7346,1.7393,1.7434,1.7494,1.7514,1.7559,1.7568,1.7543,1.7547,1.7559,1.7557,1.7597,1.7603,1.7591,1.7591,1.7591,0,1.6903,1.6936,1.7008,1.7037,1.7069,1.7115,1.7147,1.7192,1.7223,1.7283,1.7306,1.7356,1.7398,1.747,1.7512,1.7558,1.7568,1.7578,1.7575,1.7563,1.7567,1.7565,1.7567,1.7578,1.7578,1.7578,1.7578,0,1.6922,1.6944,1.6991,1.7046,1.7084,1.7128,1.7173,1.7194,1.7246,1.728,1.733,1.7363,1.7426,1.7474,1.7525,1.7554,1.7574,1.7579,1.7584,1.7575,1.7559,1.7567,1.7542,1.7577,1.7577,1.7577,1.7577,1.7577,1.6928,1.6959,1.7014,1.7065,1.7104,1.7145,1.7178,1.7217,1.726,1.7317,1.734,1.739,1.7438,1.7509,1.7538,1.7576,1.7579,1.7587,1.759,1.7591,1.7589,1.7553,1.7585,1.7585,1.7585,1.7585,1.7585,0,1.6948,1.6986,1.7032,1.7096,1.7135,1.7153,1.7203,1.7234,1.7279,1.7323,1.7365,1.7421,1.7467,1.7512,1.7561,1.7582,1.7592,1.7593,1.7591,1.7598,1.7584,1.7574,1.7584,1.7584,1.7584,1.7584,1.7584,1.7584,1.6963,1.7016,1.7044,1.7115,1.7151,1.7203,1.723,1.7267,1.7303,1.7366,1.7406,1.7436,1.7479,1.7531,1.7573,1.7585,1.7601,1.7599,1.7613,1.7599,1.7599,1.7598,1.7589,1.7602,1.7602,1.7624,1.7624,1.7624]}]]